Location: Loch
(46.6500°N, 8.6000°E)
Time: 18:25:12
(UTC+00:00)

Daily predictions for brighter satellites

Satellite Brightness Start Highest point End
(mag) Time Altitude Azimuth Time Altitude Azimuth Time Altitude Azimuth
BREEZE-M R/B 3.3 16:43:49 10° W 16:47:01 58° N 16:53:06 10° E
ATLAS 5 CENTAUR R/B 3.9 16:45:30 10° WNW 16:48:27 17° NNW 16:51:41 10° NNE
COSMO-SKYMED 1 3.6 16:46:14 10° NE 16:49:50 25° E 16:53:26 10° SSE
H-2A R/B 2.4 16:45:53 10° N 16:50:02 67° WNW 16:54:06 10° SSW
Cosmos 44 3.2 16:46:04 10° SSW 16:50:31 67° ESE 16:55:16 10° NE
H-2A R/B 3.5 16:52:11 10° E 16:55:49 19° ENE 16:59:28 10° NNE
Cosmos 1825 Rocket 3.6 16:53:20 10° N 16:57:49 87° W 17:02:14 10° S
Cosmos 1656 4.2 16:55:50 10° S 17:00:55 38° ESE 17:06:05 10° NE
CZ-4B R/B 3.7 16:56:59 10° S 17:02:34 67° WSW 17:08:04 10° NNW
Cosmos 1939 Rocket 3.3 16:59:26 10° SE 17:03:07 39° ENE 17:06:47 10° N
USA 307 3.5 16:59:40 10° NW 17:03:46 41° NNE 17:07:24 12° E
Meteor 2-21 Rocket 4.4 16:57:53 10° N 17:04:07 82° E 17:10:14 10° S
YAOGAN 1 3.7 17:00:46 10° ESE 17:04:08 23° ENE 17:07:31 10° NNE
SeaSat 1 4.1 17:03:39 11° ENE 17:06:22 16° NE 17:09:21 10° N
Okean O Rocket 2.2 17:02:10 10° S 17:06:29 62° WSW 17:10:49 10° NNW
Cosmos 1331 Rocket 4.2 17:03:07 10° SSW 17:08:16 78° WNW 17:13:28 10° NNE
USA 308 3.5 17:04:35 10° NW 17:08:42 43° NNE 17:12:08 14° E
Cosmos 1408 3.9 17:06:52 10° NNE 17:09:39 20° ENE 17:12:26 10° ESE
Timation 2 Rocket 4.3 17:03:36 10° NNW 17:10:15 86° WSW 17:17:05 10° SSE
USA 215 4.2 17:07:14 10° ENE 17:13:02 36° N 17:18:52 10° WNW
Cosmos 1726 Rocket 3.5 17:08:50 10° S 17:13:10 84° E 17:17:35 10° N
Cosmos 2227 Rocket 2.3 17:08:37 10° NNW 17:14:13 58° ENE 17:19:47 10° SE
Helios 1A Rocket 3.4 17:11:34 10° SE 17:15:23 38° ENE 17:19:12 10° N
Cosmos 1892 3.3 17:12:03 10° N 17:15:40 36° ENE 17:19:16 10° SE
Cosmos 2228 3.4 17:12:05 10° SSW 17:16:18 67° W 17:20:35 10° N
ATLAS 2AS CENTAUR R/B 3.9 17:10:39 10° NW 17:17:08 28° NNE 17:22:02 15° ENE
Cosmos 2263 Rocket 3.9 17:14:06 10° N 17:17:24 15° NE 17:19:27 13° ENE
Aureole 3 Rocket 3.3 17:13:48 10° S 17:17:45 57° E 17:23:14 10° NNE
Cosmos 1400 Rocket 2.9 17:14:03 10° S 17:18:06 59° E 17:22:08 10° NNE
Cosmos 292 Rocket 4.0 17:15:50 10° SSW 17:20:38 76° WNW 17:25:30 10° NNE
IRS-1C Rocket 4.0 17:16:39 10° SSE 17:21:53 68° ENE 17:27:08 10° N
Cosmos 968 Rocket 3.6 17:18:39 10° NNW 17:23:48 56° ENE 17:28:53 10° SE
Cosmos 1553 Rocket 4.1 17:18:37 10° SSE 17:24:46 55° E 17:30:51 10° NNE
Cosmos 1300 3.2 17:22:41 10° SSW 17:26:28 64° W 17:30:16 10° N
FALCON 9 DEB 3.2 17:24:22 10° WSW 17:27:35 64° NNW 17:29:34 21° NE
Lacrosse 5 3.4 17:24:45 10° NW 17:28:56 25° N 17:32:14 14° NE
CZ-4 R/B 1.6 17:25:32 10° SE 17:29:11 41° ENE 17:32:49 10° N
Cosmos 1606 Rocket 4.4 17:25:01 10° SSW 17:29:16 52° WNW 17:33:37 10° N
Cosmos 1697 Rocket 3.3 17:24:46 10° S 17:29:47 35° ESE 17:34:45 10° NE
FALCON 9 DEB 3.3 17:27:31 10° WSW 17:30:41 58° NNW 17:32:31 22° NE
Cosmos 2058 3.2 17:28:50 10° N 17:32:44 41° ENE 17:36:37 10° SSE
Cosmos 1825 3.2 17:30:52 10° NNE 17:34:03 25° ENE 17:34:21 25° E
PSLV R/B 4.0 17:30:06 10° NNE 17:34:14 57° E 17:38:18 10° S
SAR-Lupe-4 3.5 17:30:56 10° NNE 17:34:32 85° WNW 17:38:06 10° SSW
CZ-2D R/B 3.1 17:33:26 10° SSE 17:37:13 68° ENE 17:41:01 10° N
Cosmos 44 Rocket 4.4 17:34:02 10° SSE 17:37:46 23° ESE 17:38:24 23° E
SKYMED 2 3.5 17:33:46 10° NNE 17:38:08 77° ESE 17:42:28 10° S
ERS-2 3.5 17:34:57 10° N 17:38:25 41° WNW 17:41:51 10° SW
FALCON 9 DEB 4.1 17:36:44 10° NW 17:39:52 32° NNE 17:40:54 27° NE
Cosmos 1302 Rocket 4.1 17:34:48 10° SSW 17:40:04 79° WNW 17:45:24 10° NNE
SL-4 R/B 2.4 17:38:00 10° WNW 17:41:25 41° N 17:42:47 29° ENE
Cosmos 220 Rocket 4.3 17:37:34 10° S 17:41:44 46° ESE 17:45:06 15° NE
Okean-O 2.6 17:37:24 10° SSE 17:41:47 65° ENE 17:46:11 10° N
Cosmos 1346 Rocket 2.8 17:38:34 10° N 17:42:30 55° ENE 17:46:25 10° SSE
FALCON 9 DEB 3.6 17:40:54 10° W 17:44:04 51° NNW 17:45:25 29° NE
SL-08 R/B 4.4 17:39:34 10° N 17:45:46 85° E 17:51:53 10° S
Cosmos 1340 3.1 17:42:16 10° NNW 17:46:01 64° W 17:49:45 10° S
Cosmos 1486 Rocket 4.0 17:43:32 10° NNW 17:48:55 89° WSW 17:54:14 10° SSE
Cosmos 1315 Rocket 3.0 17:46:48 10° S 17:50:35 46° E 17:54:01 13° NNE
Cosmos 1745 Rocket 3.9 17:44:20 10° N 17:50:39 68° E 17:56:57 10° SSE
Cosmos 1980 Rocket 2.9 17:48:14 10° SSE 17:52:59 29° ESE 17:53:26 28° E
Cosmos 1689 Rocket 2.4 17:50:15 10° N 17:53:07 62° WNW 17:55:57 10° SSW
Cosmos 2297 Rocket 2.7 17:48:18 10° NNW 17:53:54 62° WSW 17:59:27 10° S
USA 305 2.9 17:49:53 10° NW 17:54:12 70° NNE 17:55:45 38° ESE
FALCON 9 DEB 3.8 17:51:38 10° W 17:54:42 42° NNW 17:55:34 33° NNE
CZ-4B R/B 3.7 17:53:07 10° NNW 17:55:46 24° WNW 17:58:21 10° WSW
In-Cosmos 22 Rocket 4.4 17:50:27 10° NNW 17:55:48 70° W 18:01:14 10° S
Cosmos 1503 Rocket 3.9 17:53:43 10° NNW 17:58:56 66° ENE 18:03:10 16° SSE
CSL-04 Debris 4.2 17:54:05 10° SSE 17:59:24 59° ENE 18:04:47 10° N
Aureole 3 4.3 17:57:24 10° SW 18:00:17 35° WNW 18:03:03 10° N
USA 306 2.8 17:56:22 10° WNW 18:00:40 76° NNE 18:01:57 44° ESE
Cosmos 1386 Rocket 4.4 17:55:19 10° N 18:01:46 78° E 18:08:05 10° SSE
Cosmos 2058 Rocket 4.2 18:00:41 10° SSW 18:04:59 46° WNW 18:09:21 10° N
CZ-2C R/B 3.2 18:02:14 10° SSE 18:08:02 87° ENE 18:13:41 10° NNW
Cosmos 1354 Rocket 3.9 18:05:51 10° NNW 18:11:07 73° ENE 18:14:14 25° SSE
Cosmos 2360 4.2 18:06:56 10° S 18:12:32 58° ESE 18:15:32 27° NE
Cosmos 1455 2.0 18:10:34 10° S 18:14:20 89° W 18:17:17 16° N
CZ-4C R/B 3.8 18:09:12 10° NNW 18:15:04 30° NNE 18:17:00 27° NE
Cosmos 1992 Rocket 3.9 18:12:37 10° SSW 18:17:49 89° WNW 18:22:43 12° NNE
Meteor 2-10 Rocket 3.6 18:14:46 10° SSW 18:20:03 75° WNW 18:25:12 10° N
Cosmos 1709 Rocket 3.9 18:13:56 10° N 18:20:17 66° ENE 18:26:38 10° SSE
Cosmos 1076 Rocket 3.4 18:17:38 10° N 18:21:54 82° W 18:25:01 18° S
Cosmos 2278 3.7 18:18:49 10° S 18:24:19 53° ESE 18:24:50 51° E
COSMO-SKYMED 1 4.2 18:22:06 10° N 18:26:04 35° WNW 18:30:00 10° SW
Meteor 2-3 Rocket 4.4 18:22:44 10° N 18:27:07 38° NE 18:27:07 38° NE
Ariane Rocket 4.1 18:30:46 29° NNE 18:30:46 29° NNE 18:33:44 10° N
Geosat 3.8 18:29:49 46° NE 18:31:21 79° ESE 18:36:22 10° SSW
Cosmos 2082 4.0 18:28:13 10° NNW 18:33:54 65° WSW 18:38:04 19° S
H-2A R/B 2.2 18:29:11 10° S 18:34:35 79° WSW 18:40:05 10° NNW
Cosmos 883 Rocket 4.3 18:29:04 10° S 18:35:13 82° E 18:41:22 10° N
ATLAS 5 CENTAUR R/B 4.2 18:33:16 10° NNW 18:35:13 12° N 18:36:16 11° NNE
SJ-11-01 4.5 18:34:07 21° S 18:37:12 69° WSW 18:41:53 10° NNW
ARGOS 3.0 18:36:01 39° SSE 18:38:07 85° ENE 18:43:36 10° NNW
YAOGAN 1 3.8 18:35:55 10° SSW 18:40:00 40° W 18:44:06 10° NNW
S3M 4.5 18:35:03 10° SSW 18:41:04 59° WNW 18:47:11 10° N
GEOS 3 Rocket 3.6 18:41:31 60° SSE 18:42:32 85° SW 18:47:58 10° NW
Cosmos 2315 Rocket 3.8 18:36:27 10° S 18:42:38 77° E 18:48:50 10° NNE
SeaSat 1 2.4 18:43:27 72° NNE 18:43:27 72° NNE 18:48:06 10° NNW
USA 307 3.4 18:39:45 10° WNW 18:43:36 56° WSW 18:43:36 56° WSW
NOSS 3-4 (A) 3.8 18:40:21 10° NW 18:47:16 68° NE 18:48:36 58° E
NOSS 3-4 (C) 3.8 18:40:27 10° NW 18:47:22 68° NE 18:48:40 58° E
Cosmos 1812 Rocket 4.2 18:43:09 10° SSW 18:47:28 55° WNW 18:51:47 10° N
Cosmos 2369 3.9 18:42:40 10° SW 18:48:23 71° WNW 18:51:18 30° NNE
USA 308 3.6 18:44:41 10° WNW 18:48:20 50° WSW 18:48:20 50° WSW
DEBRIS 4.1 18:32:57 10° WSW 18:50:45 90° NNW 18:51:52 63° ENE
USA 215 3.5 18:54:35 50° NE 18:55:17 52° NNE 19:01:36 10° NW
NOSS 3-3 (A) 4.2 18:50:38 10° SW 18:56:29 65° NW 18:59:03 37° NNE
NOSS 3-3 (C) 4.2 18:50:44 10° SW 18:56:35 66° NW 18:59:06 38° NNE
Cosmos 2227 Rocket 4.3 18:53:24 10° NW 18:57:51 24° WSW 19:02:17 10° SSW
MOS 1 Rocket 4.1 18:53:22 10° N 18:57:56 52° WNW 19:02:45 10° SSW
CSL-04 Rocket 4.4 18:52:34 10° S 18:57:57 51° W 19:03:20 10° NNW
Cosmos 2263 Rocket 2.7 18:56:48 10° NNW 19:01:10 50° N 19:01:10 50° N
CZ-4 R/B 4.1 19:01:48 10° SW 19:04:24 17° W 19:07:00 10° NW
ATLAS 2AS CENTAUR R/B 2.7 19:01:53 10° NW 19:09:27 73° NE 19:09:28 73° NE
Cosmos 1825 4.4 19:06:22 10° NW 19:09:13 24° W 19:09:13 24° W
BREEZE-M R/B 4.1 19:05:15 10° WNW 19:10:07 81° SSW 19:10:34 77° SSE
Lacrosse 5 3.3 19:08:20 10° NW 19:11:26 30° NNW 19:11:26 30° NNW
Cosmos 1697 Rocket 3.8 19:08:22 10° SW 19:13:39 41° NW 19:16:32 24° N
Atlas Centaur 2 4.3 19:09:28 10° SW 19:15:57 25° S 19:16:24 24° S
Cosmos 1980 Rocket 3.3 19:31:17 10° SW 19:35:17 40° W 19:35:17 40° W
CZ-4C R/B 3.6 19:57:28 10° NW 20:02:10 47° NNW 20:02:10 47° NNW
